Погода Нижний Тагил

Погода Нижний Тагил : погода сейчас, прогноз погоды и архив. Всё, что Вы хотите узнать о погоде Нижний Тагил!

Хотите узнать прогноз погоды Нижний Тагил? Тогда Вам сюда: Погода Нижний Тагил

Поиск расширенной информации на нашем сайте:

Другие новости

Новости СМИ2

Главная страница сайта

Новости сайта

02.10.2013

Напоминаем, что на нашем новом сайте вы можете получить высокодетализированные прогнозы погоды по пунктам России, СНГ и мира (включающие важные для авиации метеовеличины, такие как направление и скорость ветра, видимость, явления погоды, количество и форма облачности, нижняя и верхняя граница облачности), а также ознакомиться с разнообразными материалами по авиационной метеорологии и подборкой полезных ссылок на эту тему.

Сайт Метеоцентр.Азия посвящён разработке технологий оптимизации авиаметеорологического обслуживания, включая проектирование и перспективное создание нескольких автоматизированных авиаметеорологических систем:
- система выпуска высокодетальных прогностических карт явлений погоды для нижнего воздушного пространства по России и ближнему зарубежью;
- система верификации прогнозов TAF (выпускаемых синоптиками официальных АМСГ РФ и ближнего зарубежья) и AUTOTAF (выпускаемых сайтом Метеоцентр.Азия) - выявление ошибок, онлайн-сопоставление с фактической погодой METAR, автоматическое внесение коррективов в прогнозы при резком отклонении фактической погоды от прогноза, подсчёт оправдываемости прогнозов по элементам и в целом;
- система обработки, анализа и отображения авиаметеорологической информации для применения провайдерами метеорологической информации.

Рекомендуем: антигравийная пленка фото здесь

Погода Нижний Тагил - сегодня

Время (UTC), дата Ветер
(°,м/с) 
Видим.   Явления Облачность Т
(°С)
Тd
(°С)
f(%) Тe
(°С)
Pmin
(гПа)
dP
(гПа)
Po
(мм)
O2
(г/м3)
Тmin Tmax R s Состояние
почвы
12 28.07.15 320 (СЗ) 3{11}  20000 м  в посл. час ливневой дождь  9/9 600 м кучево-дожд. 
[Cb cap]
+18.1 +13.8 76 +26  1007.2  0.8  733  274           
18 28.07.15 310 (СЗ) 20000 м    8/0 средняя 
[Ac trans]
+14.8 +12.9 88 +21  1009.4  0.7  734  278           
21 28.07.15 320 (СЗ) 20000 м    8/0 средняя 
[Ac As]
+13.5 +11.5 88 +18  1009.9  0.3  734  280           
00 29.07.15 310 (СЗ) 20000 м    4/0 средняя 
[Ac trans]
+11 +9.6 91 +12  1010.9  0.7  735  283           
06 29.07.15 300 (СЗ) 20000 м    8/8 600 м кучево-дожд. 
[Cb cap]
+18.2 +12.7 70 +24  1010.4  -0.3  735  275           
09 29.07.15 310 (СЗ) 20000 м    8/8 600 м кучево-дожд. 
[Cb cap]
+21 +12 56 +25  1009.7  -0.4  735  273           
12 29.07.15 260 (З) 20000 м    8/8 600 м 
[Cu hum]
+21.2 +8.9 45 +21  1009.1  -0.6  734  273           
18 29.07.15 тихо ()   20000 м    10/0 средняя 
[Ac trans]
+11.9 +10.3 90 +14  1010.5  0.4  735  282           
21 29.07.15 тихо ()   20000 м    10/10 600 м кучево-дожд. 
[Cb cap]
+12.7 +11 89 +16  1010.2  -0.2  735  281           
06 30.07.15 220 (ЮЗ) 20000 м    10/10 600 м кучево-дожд. 
[Cb cap]
+18.5 +14.2 76 +27  1009.2  0.1  734  274           
09 30.07.15 240 (ЮЗ) 20000 м    3/3 600 м кучево-дожд. 
[Cb cap]
+24 +14.7 56 +33  1006.7  -1.8  733  268           
18 30.07.15 170 (Ю) 20000 м    4/0 средняя 
[Ac As]
+19.7 +14.3 71 +29  1006.6  0.6  733  272           
21 30.07.15 220 (ЮЗ) 20000 м  {ливн. осадки}  9/8 600 м кучево-дожд., средняя 
[Cb cap|Ac trans]
+17.1 +15.2 89 +28  1006.4  -0.4  732  274           
00 31.07.15 210 (ЮЗ) 20000 м  {ливн. осадки}  5/3 600 м кучево-дожд., средняя 
[Cb cap|Ac trans]
+15.5 +14.1 91 +25  1006.9  0.3  732  276           
03 31.07.15 250 (З) 20000 м    9/0 средняя 
[Ac As]
+18 +14.6 81 +28  1007.4  0.8  733  274  +15.2    0.3    влажная 
06 31.07.15 240 (ЮЗ) 20000 м    10/3 1000 м средняя, верхняя 
[Cu med, cong|Ac trans|Ci fib]
+21.6 +14.5 64 +30  1007.2  0.1  733  271           
09 31.07.15 230 (ЮЗ) 20000 м    9/8 600 м кучево-дожд., средняя 
[Cb cap|Ac trans]
+24.5 +15 55 +34  1006.2  -0.7  733  268           
12 31.07.15 250 (З) 20000 м    9/8 600 м кучево-дожд., верхняя 
[Cb cap|Cc]
+23.2 +13.4 54 +30  1005.7  -0.6  732  269           
18 31.07.15 160 (Ю) 2000 м  ливневой дождь  10/10 300 м кучево-дожд. 
[Cb cap]
+16.8 +15.5 92 +28  1004.9  -0.7  731  274           
21 31.07.15 220 (ЮЗ) 20000 м  в посл. час ливневой дождь  10/10 600 м кучево-дожд. 
[Cb cap]
+15.5 +14.3 93 +25  1005.1  731  276           
00 01.08.15 280 (З) 20000 м  {ливн. осадки}  10/10 600 м кучево-дожд. 
[Cb cap]
+14.7 +13.3 91 +21  1006.7  1.4  732  277           
03 01.08.15 260 (З) 20000 м    9/9 600 м кучево-дожд. 
[Cb cap]
+15.8 +13.3 85 +22  1008.4  1.8  734  277  +14.7      влажная 
06 01.08.15 280 (З) 5-10{11}  20000 м    9/9 600 м кучево-дожд. 
[Cb cap]
+18.6 +12.7 69 +24  1009.7  1.6  735  275           
12 01.08.15 270 (З) 6-10{11}  20000 м    5/5 600 м 
[Cu med, cong]
+21.8 +9.2 45 +22  1012  0.7  737  273           
18 01.08.15 110 (В) 20000 м    3/0 верхняя 
[Cc]
+11.5 +10.4 93 +15  1014  0.2  737  283           
Время (UTC), дата Ветер
(°,м/с) 
Видим.   Явления Облачность Т
(°С)
Тd
(°С)
f(%) Тe
(°С)
Pmin
(гПа)
dP
(гПа)
Po
(мм)
O2
(г/м3)
Тmin Tmax R s Состояние
почвы

Для получения пояснительной информации подведите курсор к названию столбца.

ПОГОДА Нижний Тагил - архив

Всё, что Вы хотите узнать о погоде Нижний Тагил - удобно и подробно!

Выберите нужную дату (начиная с 1 января 2013* года) и нажмите кнопку "Найти".
Будут отображены архивные сводки погоды по пункту Нижний Тагил, начиная с указанной даты.


Отображать данные в формате CSV (для использования в таблицах Excel)


Внимание! Наш архив погоды предназначен исключительно для личного некоммерческого использования в познавательных целях. Если Вам необходимы официальные справки о состоянии погоды (для производственных, юридических, коммерческих и т.п. целей), обращайтесь в органы Росгидромета.

*Примечание: данная дата относится к архиву по метеостанциям СССР (Россия, СНГ, Балтия).
Архив по метеостанциям Зарубежной Европы и Азии (кроме Китая) хранится 10 дней, по другим регионам земного шара (Китай, Африка, Америка, Австралия, Океания) - 1 день.

Нижний Тагил - район местоположения метеостанции


Название, широта, долгота, высота метеостанции:
Нижний Тагил 57.9°ш. 60.1°д. 260 м над ур. моря [Российская Федерация]

Дополнительная информация

В oтличие oт бoльшинства пoгoдных сайтoв мы публикуем пoдрoбную метеoинфoрмацию в детальнoм прoфессиoнальнoм фoрмате.

Характеристики температуры и влажнoсти вoздуха измеряются на высoте 2 м в тени вдали oт зданий и деревьев.
Скoрoсть ветра измеряется на высoте 10 м (на урoвне рoста челoвека скoрoсть ветра ниже в 1.5-2 раза). Если метеoстанция нахoдится в гoрoде или в лесу, тo скoрoсть ветра занижена на 2-4 м/с пo сравнению с oткрытым местoм. Скoрoсть ветра над акватoриями крупных рек и oзёр, а также на вершинах хoлмoв на 2-5 м/с выше, чем в oбычных услoвиях.
Атмoсфернoе давление в разных тoчках местнoсти мoжет значительнo oтличаться oт давления на метеoстанции, в зависимoсти oт услoвий рельефа (при пoдъёме на 10 м давление пoнижается примернo на 1 мм рт.ст.).